Court-Ordered Liquidation of Kerner Optical, LLC in San Rafael, California (Kerner Blvd)

Lot #104: Clausing Drill Press Model 1763

Bidding is closed.
High Bid:$721.00
Bidding Ended: Tue, Oct 25  9:04 am (PT)
High Bidder: dan10400
Bid Increment: $10.00
Starting Bid: $5.00
Item Location: 90 Windward Way, San Rafael, CA 94901
Item has been viewed 1,639 times.

Clausing Drill Press Model 1763

  • 1200-1800 RPM Motor
  • 3/4 HP, 115/230 V, single-phase
  • Drill speeds: 330-4000 RPM
  • 13" maximum vertical clearance
  • Size: 28"L x 21"W x 73"H
  • (1) Set-up clamp
  • (1) Arbor Press
Bid Date Bid Amount Bidder
Oct 25, 2011 - 9:03:37 AM $721.00 dan10400
Oct 25, 2011 - 9:03:37 AM $715.00 Pschiefer
Oct 25, 2011 - 9:00:46 AM $710.00 Pschiefer
Oct 25, 2011 - 9:00:46 AM $700.00 zander13
Oct 25, 2011 - 8:28:34 AM $600.00 zander13
Oct 25, 2011 - 8:28:34 AM $590.00 bitguy
Oct 25, 2011 - 8:20:19 AM $510.00 bitguy
Oct 25, 2011 - 8:20:19 AM $500.00 Dav8or
Oct 24, 2011 - 7:17:36 PM $435.00 Dav8or
Oct 24, 2011 - 7:17:03 PM $425.00 gaters
Oct 24, 2011 - 7:17:03 PM $420.00 Dav8or
Oct 23, 2011 - 2:50:10 PM $410.00 gaters
Oct 23, 2011 - 2:50:03 PM $400.00 ROADKING
Oct 23, 2011 - 2:50:05 PM $400.00 gaters
Oct 23, 2011 - 2:49:58 PM $385.00 ROADKING
Oct 23, 2011 - 2:49:58 PM $375.00 gaters
Oct 23, 2011 - 2:49:52 PM $360.00 ROADKING
Oct 23, 2011 - 2:49:52 PM $350.00 gaters
Oct 23, 2011 - 2:49:44 PM $335.00 ROADKING
Oct 23, 2011 - 2:49:44 PM $325.00 gaters
Oct 23, 2011 - 2:49:34 PM $305.00 ROADKING
Oct 23, 2011 - 2:49:34 PM $295.00 gaters
Oct 23, 2011 - 2:49:18 PM $285.00 ROADKING
Oct 23, 2011 - 2:49:18 PM $275.00 gaters
Oct 23, 2011 - 2:49:08 PM $260.00 ROADKING
Oct 23, 2011 - 2:49:08 PM $250.00 gaters
Oct 22, 2011 - 8:43:24 PM $240.00 ROADKING
Oct 22, 2011 - 2:24:01 PM $230.00 Dav8or
Oct 22, 2011 - 2:24:01 PM $225.00 gaters
Oct 22, 2011 - 2:23:22 PM $220.00 gaters
Oct 22, 2011 - 2:23:22 PM $210.00 Dav8or
Oct 21, 2011 - 7:07:12 PM $200.00 gaters
Oct 21, 2011 - 7:07:12 PM $190.00 buzzdex1
Oct 21, 2011 - 2:09:40 PM $185.00 buzzdex1
Oct 21, 2011 - 2:09:40 PM $175.00 529894566t
Oct 21, 2011 - 11:38:54 AM $160.00 529894566t
Oct 21, 2011 - 11:38:46 AM $150.00 Titlepro
Oct 21, 2011 - 11:38:48 AM $150.00 529894566t
Oct 21, 2011 - 10:05:26 AM $102.50 Titlepro
Oct 21, 2011 - 10:05:26 AM $100.00 zachsymmonds
Oct 21, 2011 - 10:05:16 AM $80.00 zachsymmonds
Oct 21, 2011 - 10:05:16 AM $75.00 Titlepro
Oct 21, 2011 - 9:48:43 AM $30.00 zachsymmonds
Oct 21, 2011 - 9:48:43 AM $25.00 caliq1
Oct 21, 2011 - 9:23:45 AM $5.00 icaliq1
Click on any picture to see a larger image.